[[{"header":{"parameterUnit":"m.s-1","parameterCategory":1,"la1":30.2991,"la2":30.254,"lo1":-89.0895,"lo2":-89.0444,"dy":0.0017,"dx":0.0017,"nx":28,"ny":28,"refTime":"2024-10-13T09:00:00:Z","depth":0,"parameterNumber":2,"parameterNumberName":"U-component_of_WINDS"},"data":[0,0,0,0,0,0,0,0,0,0,0,0,0,0,0,0,0,0,0,0,0,0,0,0,0,0,0,0,0,0,0,0,0,0,0,0,0,0,0,0,0,0,0,0,0,0,0,0,0,0,0,0,0,0,0,0,0,0,0.3151,0.3151,0,0.3118,0.3118,0.3117,0.3076,0.3075,0.3074,0.3074,0.3038,0.3038,0.3038,0,0,0,0,0,0,0,0,0,0,0,0,0,0.3178,0.3178,0.3151,0.3151,0.3151,0.3118,0.3118,0.3117,0.3076,0.3075,0.3074,0.3073,0.3038,0.3038,0.3038,0,0,0,0,0,0,0,0,0,0,0,0,0,0.3158,0.3178,0.3151,0.3126,0.3123,0.3118,0.3118,0.3117,0.3076,0.3075,0.3074,0.3073,0.3039,0.3038,0.3038,0.3055,0,0,0.3036,0.3036,0,0,0,0,0,0,0,0,0.3159,0.3157,0.313,0.3128,0.3125,0.31,0.3114,0.3096,0.3076,0.3094,0.3074,0.3072,0.306,0.3057,0.3053,0.3053,0.3051,0.3036,0.3036,0.3036,0.3035,0,0,0,0,0,0,0,0.3161,0.3158,0.3138,0.313,0.3126,0.3116,0.3112,0.3111,0.3083,0.3092,0.3089,0.3086,0.3058,0.3054,0.3052,0.3051,0.3036,0.3036,0.3035,0.3035,0.3064,0.3065,0,0,0,0,0,0,0.3166,0.316,0.3139,0.3137,0.314,0.3116,0.3112,0.3109,0.3083,0.3078,0.3087,0.3084,0.3055,0.3053,0.3051,0.307,0.3036,0.3035,0.3035,0.3063,0.3064,0.3065,0,0,0,0,0,0,0.3167,0.3165,0.314,0.3148,0.3144,0.3117,0.3114,0.3109,0.3105,0.3078,0.3073,0.3088,0.3054,0.3051,0.3054,0.3068,0.3035,0.3035,0.3062,0.3063,0.3065,0.3107,0,0,0,0,0,0,0.3168,0.3165,0.3171,0.3148,0.3144,0.3145,0.3115,0.3109,0.3104,0.31,0.3078,0.3073,0.3053,0.3055,0.3054,0.3066,0.3034,0.306,0.3062,0.3064,0.3104,0.311,0.3115,0,0,0,0,0,0.3169,0.3184,0.3172,0.317,0.3151,0.3146,0.3143,0.312,0.3105,0.3111,0.3095,0.3074,0.3067,0.3056,0.3054,0.3067,0.3059,0.3062,0.3064,0.3102,0.3109,0.3115,0,0,0,0,0,0,0.3209,0.318,0.3167,0.3175,0.3163,0.3139,0.3146,0.3128,0.312,0.3116,0.3088,0.3083,0.309,0.3078,0.3067,0.3082,0.306,0.3062,0.3089,0.3096,0.3101,0.3103,0.3034,0,0,0,0,0,0.3219,0.3217,0.3192,0.3202,0.3197,0.3173,0.3169,0.3153,0.3139,0.3134,0.3118,0.3105,0.31,0.3097,0.3091,0.3103,0.3097,0.311,0.3116,0.312,0.3122,0.3128,0.3134,0.3073,0.3073,0.3073,0,0,0.3239,0.3223,0.3224,0.321,0.3199,0.3198,0.3169,0.3169,0.3168,0.3134,0.3136,0.3124,0.3108,0.3116,0.3118,0.3106,0.3138,0.3123,0.3127,0.3126,0.3131,0.3137,0.3142,0.3075,0.3074,0.3074,0,0,0.3275,0.3263,0.327,0.326,0.3244,0.3228,0.323,0.3208,0.3199,0.3201,0.3176,0.3174,0.3166,0.3156,0.315,0.3184,0.3165,0.3183,0.321,0.3216,0.3221,0.3225,0.3238,0.3243,0.3185,0.3185,0.3185,0,0.3302,0.33,0.3276,0.3278,0.3273,0.3243,0.325,0.3241,0.3224,0.3221,0.3208,0.3198,0.3185,0.3191,0.3199,0.3195,0.3196,0.3185,0.3222,0.3226,0.323,0.3241,0.3246,0.3187,0.3187,0.3187,0.3187,0,0.3335,0.3334,0.3341,0.3326,0.3322,0.3327,0.3303,0.3302,0.3286,0.3271,0.3274,0.3257,0.3248,0.3248,0.3232,0.3251,0.3245,0.3228,0.3205,0.3238,0.3249,0.3253,0.3191,0.319,0.3189,0.3189,0,0,0.3395,0.3367,0.337,0.3364,0.3344,0.3343,0.3347,0.3338,0.3338,0.3327,0.3329,0.3324,0.3308,0.3301,0.3284,0.329,0.3319,0.3271,0.3271,0.3281,0.334,0.3353,0.3359,0.3306,0.3307,0.3307,0.3341,0,0.3428,0.3433,0.3412,0.3422,0.3421,0.3393,0.3396,0.3385,0.3372,0.3369,0.3354,0.3351,0.333,0.3326,0.333,0.3314,0.333,0.3311,0.3308,0.3308,0.3313,0.3364,0.3378,0.3411,0.3345,0.3346,0.3347,0,0.3467,0.3459,0.347,0.3451,0.345,0.3453,0.3444,0.3442,0.3429,0.3419,0.3412,0.3392,0.3395,0.3373,0.3376,0.3364,0.3361,0.3354,0.3354,0.3353,0.333,0.3365,0.3421,0.3426,0.3353,0.3352,0.3352,0,0.351,0.3503,0.3508,0.3503,0.3481,0.3484,0.3475,0.3461,0.3458,0.345,0.3447,0.344,0.3435,0.343,0.3409,0.3395,0.3415,0.3391,0.3407,0.3407,0.3412,0.3412,0.3469,0.341,0.341,0.341,0.341,0,0.355,0.3557,0.3528,0.3531,0.3539,0.3515,0.3523,0.3512,0.35,0.35,0.3476,0.3477,0.3449,0.3447,0.3431,0.3437,0.3435,0.3427,0.3422,0.3429,0.343,0.3427,0.3424,0.3411,0.3411,0.3411,0.3411,0,0.3599,0.358,0.3584,0.3564,0.3559,0.3565,0.3548,0.355,0.3536,0.3537,0.3536,0.3513,0.351,0.3489,0.348,0.3469,0.3481,0.3472,0.3486,0.3483,0.35,0.3499,0.3556,0.3563,0.35,0.3501,0.3501,0,0.3626,0.3631,0.3612,0.3611,0.3603,0.3602,0.3598,0.3575,0.3572,0.3559,0.3563,0.3558,0.3552,0.3549,0.3531,0.3525,0.3516,0.3537,0.3515,0.3522,0.3517,0.3517,0.3517,0.3541,0.3542,0.3543,0.3543,0,0.3675,0.3666,0.3662,0.3655,0.3652,0.3645,0.3637,0.3638,0.3612,0.3611,0.3607,0.3603,0.3596,0.3591,0.3582,0.3573,0.3554,0.355,0.3554,0.3561,0.3569,0.3565,0.3499,0.3549,0.3548,0.3548,0.3548,0.3548,0.3714,0.3718,0.3705,0.3702,0.3694,0.3687,0.3689,0.3675,0.3672,0.3664,0.365,0.365,0.3637,0.3623,0.3616,0.3614,0.3603,0.3608,0.3609,0.3611,0.3615,0.3569,0.3613,0.3612,0.3612,0.3612,0.3612,0,0.3763,0.3753,0.3751,0.3741,0.3738,0.3722,0.3712,0.3711,0.3711,0.3701,0.3697,0.3694,0.3689,0.3672,0.3666,0.3669,0.366,0.3668,0.3668,0.3666,0.3625,0.3623,0.3675,0.3675,0.3675,0.3675,0.3675,0.3675,0.3787,0.3793,0.3782,0.3784,0.3775,0.3774,0.377,0.3764,0.3756,0.3754,0.375,0.374,0.3727,0.372,0.3716,0.3711,0.371,0.3721,0.3713,0.3675,0.3669,0.3663,0.3661,0.3721,0.3721,0.3754,0.3755,0.3755]},{"header":{"parameterUnit":"m.s-1","parameterCategory":1,"la1":30.2991,"la2":30.254,"lo1":-89.0895,"lo2":-89.0444,"dy":0.0017,"dx":0.0017,"nx":28,"ny":28,"refTime":"2024-10-13T09:00:00:Z","depth":0,"parameterNumber":3,"parameterNumberName":"V-component_of_WINDS"},"data":[0,0,0,0,0,0,0,0,0,0,0,0,0,0,0,0,0,0,0,0,0,0,0,0,0,0,0,0,0,0,0,0,0,0,0,0,0,0,0,0,0,0,0,0,0,0,0,0,0,0,0,0,0,0,0,0,0,0,-0.2878,-0.2878,0,-0.292,-0.292,-0.2921,-0.2927,-0.2926,-0.2926,-0.2925,-0.2968,-0.2969,-0.2971,0,0,0,0,0,0,0,0,0,0,0,0,0,-0.2803,-0.2804,-0.2878,-0.2878,-0.2879,-0.292,-0.292,-0.2921,-0.2927,-0.2926,-0.2926,-0.2925,-0.2967,-0.2969,-0.2971,0,0,0,0,0,0,0,0,0,0,0,0,0,-0.2839,-0.2804,-0.2878,-0.2887,-0.2888,-0.292,-0.292,-0.2921,-0.2927,-0.2926,-0.2926,-0.2925,-0.2967,-0.2969,-0.2971,-0.2996,0,0,-0.2978,-0.2979,0,0,0,0,0,0,0,0,-0.2837,-0.2842,-0.2885,-0.2886,-0.2888,-0.2917,-0.2909,-0.2946,-0.2927,-0.2912,-0.2925,-0.2925,-0.2951,-0.2955,-0.2964,-0.2998,-0.3,-0.2978,-0.2979,-0.298,-0.2981,0,0,0,0,0,0,0,-0.2834,-0.284,-0.2894,-0.2885,-0.2887,-0.2889,-0.2893,-0.2916,-0.2934,-0.2913,-0.2914,-0.2919,-0.2952,-0.2962,-0.2965,-0.3001,-0.2978,-0.298,-0.2981,-0.2982,-0.3058,-0.3059,0,0,0,0,0,0,-0.283,-0.2838,-0.2893,-0.2896,-0.286,-0.289,-0.2895,-0.2908,-0.2934,-0.2938,-0.2919,-0.2919,-0.2958,-0.2962,-0.2966,-0.2998,-0.298,-0.2982,-0.2984,-0.3058,-0.3059,-0.3059,0,0,0,0,0,0,-0.2829,-0.2835,-0.2891,-0.2867,-0.2874,-0.2892,-0.2907,-0.291,-0.2919,-0.2939,-0.2942,-0.2926,-0.2958,-0.2963,-0.2989,-0.3,-0.2983,-0.2985,-0.3057,-0.3058,-0.3059,-0.3061,0,0,0,0,0,0,-0.2826,-0.2834,-0.2844,-0.2867,-0.2875,-0.2913,-0.2907,-0.2911,-0.2923,-0.2923,-0.2946,-0.2949,-0.2958,-0.2986,-0.2991,-0.3002,-0.2987,-0.3056,-0.3057,-0.3059,-0.306,-0.3062,-0.3064,0,0,0,0,0,-0.2824,-0.2843,-0.2845,-0.2851,-0.2888,-0.2914,-0.2919,-0.2929,-0.2924,-0.2934,-0.2947,-0.2948,-0.2998,-0.2988,-0.2995,-0.3007,-0.3055,-0.3057,-0.3059,-0.306,-0.3062,-0.3064,0,0,0,0,0,0,-0.2821,-0.2846,-0.2848,-0.2876,-0.2893,-0.2915,-0.2928,-0.2931,-0.2949,-0.2948,-0.296,-0.2965,-0.299,-0.3001,-0.299,-0.3033,-0.3026,-0.3029,-0.3025,-0.3027,-0.3029,-0.3026,-0.2989,0,0,0,0,0,-0.2823,-0.2842,-0.2863,-0.2885,-0.2894,-0.2909,-0.2921,-0.2927,-0.2945,-0.2952,-0.2967,-0.2984,-0.3003,-0.3016,-0.3035,-0.3062,-0.3067,-0.3073,-0.3075,-0.3077,-0.3079,-0.3094,-0.3097,-0.3064,-0.3064,-0.3064,0,0,-0.2829,-0.2845,-0.2856,-0.2885,-0.2899,-0.2918,-0.2915,-0.2936,-0.295,-0.2955,-0.2981,-0.2992,-0.3012,-0.3038,-0.3051,-0.3048,-0.3089,-0.3079,-0.3079,-0.3081,-0.3096,-0.3099,-0.3102,-0.3066,-0.3065,-0.3065,0,0,-0.2848,-0.2863,-0.2883,-0.2897,-0.2918,-0.2928,-0.2933,-0.2955,-0.2963,-0.2988,-0.2993,-0.301,-0.3043,-0.3057,-0.3069,-0.3094,-0.3097,-0.31,-0.311,-0.3124,-0.3127,-0.3129,-0.3139,-0.3142,-0.3103,-0.3103,-0.3103,0,-0.2852,-0.2882,-0.2892,-0.2913,-0.2926,-0.2932,-0.2952,-0.2965,-0.2992,-0.3,-0.2997,-0.3039,-0.3053,-0.3083,-0.3089,-0.3098,-0.3104,-0.3098,-0.3126,-0.3128,-0.3131,-0.3139,-0.3143,-0.3103,-0.3103,-0.3103,-0.3103,0,-0.2885,-0.2906,-0.2919,-0.2945,-0.2959,-0.298,-0.2993,-0.3007,-0.3012,-0.3023,-0.3049,-0.3066,-0.3088,-0.3096,-0.3101,-0.3127,-0.3125,-0.3123,-0.3117,-0.3134,-0.3142,-0.3146,-0.3103,-0.3103,-0.3103,-0.3103,0,0,-0.2904,-0.2936,-0.294,-0.2952,-0.2976,-0.2992,-0.3013,-0.3035,-0.3046,-0.3064,-0.3082,-0.311,-0.3109,-0.3123,-0.3129,-0.3143,-0.3162,-0.314,-0.314,-0.3143,-0.3191,-0.3192,-0.3196,-0.3164,-0.3164,-0.3165,-0.319,0,-0.2926,-0.2963,-0.2974,-0.3005,-0.3024,-0.3031,-0.3049,-0.3066,-0.3076,-0.3094,-0.3105,-0.3125,-0.3123,-0.3131,-0.3144,-0.3157,-0.3172,-0.3155,-0.318,-0.3181,-0.3175,-0.32,-0.3201,-0.3224,-0.3193,-0.3194,-0.3194,0,-0.2957,-0.2976,-0.3009,-0.3031,-0.304,-0.3056,-0.3077,-0.3094,-0.3113,-0.312,-0.3135,-0.3141,-0.3163,-0.3156,-0.3186,-0.3174,-0.3185,-0.3193,-0.3194,-0.3197,-0.3188,-0.3203,-0.3231,-0.3234,-0.32,-0.3199,-0.3199,0,-0.2967,-0.3001,-0.3025,-0.3035,-0.3062,-0.3073,-0.3084,-0.3103,-0.3116,-0.3135,-0.3143,-0.3164,-0.3176,-0.3192,-0.3204,-0.3197,-0.3233,-0.3227,-0.3239,-0.3239,-0.3246,-0.3245,-0.3275,-0.3253,-0.3253,-0.3253,-0.3253,0,-0.2991,-0.3011,-0.303,-0.3045,-0.3068,-0.308,-0.3102,-0.3114,-0.3131,-0.3148,-0.3155,-0.3171,-0.3186,-0.3204,-0.3213,-0.3236,-0.3242,-0.3248,-0.325,-0.3247,-0.3246,-0.3254,-0.3253,-0.3254,-0.3254,-0.3254,-0.3254,0,-0.3005,-0.3019,-0.3046,-0.3069,-0.3076,-0.3091,-0.3111,-0.3126,-0.3137,-0.3159,-0.3165,-0.3182,-0.3204,-0.3217,-0.3244,-0.325,-0.3277,-0.3278,-0.327,-0.3271,-0.3283,-0.3281,-0.3319,-0.3324,-0.3299,-0.3299,-0.3299,0,-0.3019,-0.3035,-0.306,-0.3072,-0.3084,-0.3104,-0.3117,-0.313,-0.3143,-0.3167,-0.3179,-0.3201,-0.3219,-0.3254,-0.3269,-0.329,-0.3292,-0.3304,-0.3295,-0.3292,-0.3292,-0.3291,-0.3292,-0.3305,-0.3305,-0.3305,-0.3305,0,-0.3043,-0.3049,-0.3068,-0.309,-0.3106,-0.3123,-0.3141,-0.3151,-0.3167,-0.3182,-0.3204,-0.3218,-0.3247,-0.3268,-0.3291,-0.3303,-0.3307,-0.3308,-0.3312,-0.3309,-0.3304,-0.3307,-0.3274,-0.3307,-0.3307,-0.3307,-0.3307,-0.3307,-0.3057,-0.3072,-0.3092,-0.3113,-0.3128,-0.3144,-0.3159,-0.3173,-0.3192,-0.3216,-0.3222,-0.3246,-0.3265,-0.3296,-0.3308,-0.3326,-0.3325,-0.333,-0.3332,-0.3333,-0.3333,-0.3301,-0.3331,-0.3331,-0.333,-0.333,-0.333,0,-0.3081,-0.3094,-0.3114,-0.3138,-0.3155,-0.3158,-0.3178,-0.3192,-0.3212,-0.323,-0.3248,-0.3274,-0.3296,-0.3313,-0.3335,-0.3346,-0.3349,-0.3352,-0.3351,-0.3353,-0.3334,-0.3328,-0.3349,-0.3349,-0.3349,-0.3349,-0.3349,-0.3349,-0.3095,-0.312,-0.3128,-0.316,-0.3174,-0.3197,-0.3208,-0.3223,-0.3238,-0.3266,-0.3284,-0.3295,-0.3313,-0.3336,-0.3356,-0.3361,-0.3368,-0.3371,-0.3376,-0.3357,-0.3355,-0.3353,-0.3347,-0.3373,-0.3373,-0.3394,-0.3394,-0.3394]}]]